Location: *
(35.2348°S, 91.3916°E)
Time: 09:04:31
(UTC+00:00)

Cosmos 2221 - Pass Details

Date: 23 October 2019
Orbit: 593 x 615 km, 82.5° (Epoch: 12 November)

Event Time Altitude Azimuth Distance (km) Brightness Sun altitude
Rises 13:08:14 0° 186° (S) 2,899 6.4 -11.0°
Reaches altitude 10° 13:10:29 10° 184° (S) 1,982 5.5 -11.4°
Maximum altitude 13:14:52 78° 97° (E) 627 2.4 -12.2°
Drops below altitude 10° 13:19:10 10° 10° (N) 1,940 4.8 -13.0°
Enters shadow 13:20:30 - 9° (N) 2,481 5.3 -13.3°
